When you browse on this site, cookies collect data to enhance your experience and personalize the content and advertising you see.
Visit our Privacy Policy to learn more. By continuing to use the site, you agree to this use of cookies and data.
  • In Denmark
  • List of Countries
  • For 7 days
  • Water Temperature
  • Satellite Maps
  • Weather Map
  • Weather Widgets
  • user-avatar
    Login

    Hourly Weather Barra

    Today, 18 June, Tuesday

    Time Temperature Precipitation Wind Pressure Humidity
    00:00 +19°C° 0 mm 1 mps 751 mmHg 87%
    01:00 +19°C° 0 mm 1 mps 750 mmHg 87%
    02:00 +18°C° 0 mm 2 mps 750 mmHg 87%
    03:00 +18°C° 0 mm 2 mps 751 mmHg 86%
    04:00 +17°C° 0 mm 2 mps 751 mmHg 82%
    05:00 +17°C° 0 mm 2 mps 751 mmHg 81%
    06:00 +17°C° 0 mm 2 mps 751 mmHg 81%
    07:00 +16°C° 0 mm 2 mps 751 mmHg 80%
    08:00 +19°C° 0 mm 2 mps 751 mmHg 73%
    09:00 +21°C° 0 mm 2 mps 751 mmHg 66%
    10:00 +25°C° 0 mm 1 mps 752 mmHg 62%
    11:00 +25°C° 0 mm 2 mps 751 mmHg 62%
    12:00 +25°C° 0 mm 2 mps 750 mmHg 63%
    13:00 +25°C° 0 mm 3 mps 750 mmHg 63%
    14:00 +25°C° 0 mm 3 mps 749 mmHg 66%
    15:00 +24°C° 0 mm 3 mps 749 mmHg 69%
    16:00 +24°C° 0 mm 3 mps 749 mmHg 71%
    17:00 +21°C° 0 mm 3 mps 749 mmHg 78%
    18:00 +20°C° 0 mm 2 mps 750 mmHg 84%
    19:00 +19°C° 0 mm 2 mps 750 mmHg 90%
    20:00 +18°C° 0 mm 2 mps 751 mmHg 91%
    21:00 +19°C° 0 mm 1 mps 751 mmHg 92%
    22:00 +19°C° 0 mm 1 mps 752 mmHg 92%
    23:00 +18°C° 0 mm 2 mps 751 mmHg 93%

    Tomorrow, 19 June, Wednesday

    Time Temperature Precipitation Wind Pressure Humidity
    00:00 +17°C° 0 mm 2 mps 751 mmHg 93%
    01:00 +17°C° 0 mm 2 mps 751 mmHg 93%
    02:00 +17°C° 0 mm 2 mps 751 mmHg 93%
    03:00 +17°C° 0 mm 2 mps 751 mmHg 93%
    04:00 +17°C° 0 mm 2 mps 751 mmHg 94%
    05:00 +17°C° 0.1 mm 2 mps 751 mmHg 93%
    06:00 +17°C° 0.1 mm 3 mps 751 mmHg 92%
    07:00 +17°C° 0.1 mm 3 mps 751 mmHg 92%
    08:00 +19°C° 0 mm 3 mps 751 mmHg 85%
    09:00 +20°C° 0 mm 3 mps 752 mmHg 78%
    10:00 +21°C° 0 mm 3 mps 752 mmHg 71%
    11:00 +22°C° 0 mm 3 mps 751 mmHg 68%
    12:00 +22°C° 0 mm 3 mps 751 mmHg 66%
    13:00 +22°C° 0 mm 3 mps 750 mmHg 64%
    14:00 +22°C° 0 mm 3 mps 750 mmHg 64%
    15:00 +22°C° 0 mm 3 mps 750 mmHg 64%
    16:00 +21°C° 0 mm 3 mps 750 mmHg 64%
    17:00 +20°C° 0 mm 2 mps 750 mmHg 69%
    18:00 +18°C° 0 mm 2 mps 750 mmHg 73%
    19:00 +17°C° 0 mm 2 mps 751 mmHg 78%
    20:00 +16°C° 0 mm 2 mps 751 mmHg 79%
    21:00 +16°C° 0 mm 2 mps 752 mmHg 80%
    22:00 +16°C° 0 mm 2 mps 752 mmHg 82%
    23:00 +15°C° 0 mm 2 mps 752 mmHg 82%

    Day after tomorrow, 20 June, Thursday

    Time Temperature Precipitation Wind Pressure Humidity
    00:00 +15°C° 0 mm 2 mps 751 mmHg 82%
    01:00 +15°C° 0 mm 2 mps 751 mmHg 83%
    02:00 +14°C° 0 mm 2 mps 751 mmHg 83%
    03:00 +14°C° 0 mm 2 mps 751 mmHg 83%
    04:00 +14°C° 0 mm 2 mps 751 mmHg 83%
    05:00 +14°C° 0 mm 2 mps 751 mmHg 84%
    06:00 +14°C° 0 mm 2 mps 751 mmHg 84%
    07:00 +14°C° 0 mm 2 mps 752 mmHg 85%
    08:00 +16°C° 0 mm 2 mps 752 mmHg 78%
    09:00 +18°C° 0 mm 2 mps 752 mmHg 71%
    10:00 +21°C° 0 mm 2 mps 752 mmHg 64%
    11:00 +21°C° 0 mm 3 mps 751 mmHg 61%
    12:00 +22°C° 0 mm 3 mps 751 mmHg 58%
    13:00 +22°C° 0 mm 4 mps 750 mmHg 54%
    14:00 +22°C° 0 mm 3 mps 750 mmHg 56%
    15:00 +21°C° 0 mm 3 mps 750 mmHg 59%
    16:00 +21°C° 0 mm 3 mps 750 mmHg 61%
    17:00 +19°C° 0 mm 3 mps 750 mmHg 67%
    18:00 +17°C° 0 mm 2 mps 751 mmHg 73%
    19:00 +16°C° 0 mm 2 mps 751 mmHg 79%
    20:00 +15°C° 0 mm 2 mps 751 mmHg 81%
    21:00 +15°C° 0 mm 2 mps 752 mmHg 83%
    22:00 +14°C° 0 mm 2 mps 752 mmHg 85%
    23:00 +14°C° 0 mm 2 mps 752 mmHg 85%

    21 June, Friday

    Time Temperature Precipitation Wind Pressure Humidity
    00:00 +14°C° 0 mm 2 mps 752 mmHg 84%
    01:00 +14°C° 0 mm 2 mps 751 mmHg 84%
    02:00 +14°C° 0 mm 2 mps 751 mmHg 83%
    03:00 +13°C° 0 mm 2 mps 751 mmHg 82%
    04:00 +13°C° 0 mm 2 mps 751 mmHg 82%
    05:00 +13°C° 0 mm 2 mps 751 mmHg 80%
    06:00 +13°C° 0 mm 2 mps 751 mmHg 77%
    07:00 +12°C° 0 mm 3 mps 751 mmHg 75%
    08:00 +15°C° 0 mm 2 mps 752 mmHg 68%
    09:00 +18°C° 0 mm 2 mps 752 mmHg 60%
    10:00 +20°C° 0 mm 2 mps 752 mmHg 53%
    11:00 +21°C° 0 mm 3 mps 751 mmHg 50%
    12:00 +22°C° 0 mm 3 mps 751 mmHg 48%
    13:00 +24°C° 0 mm 3 mps 750 mmHg 46%
    14:00 +22°C° 0 mm 3 mps 750 mmHg 48%
    15:00 +22°C° 0 mm 3 mps 750 mmHg 50%
    16:00 +21°C° 0 mm 3 mps 750 mmHg 53%
    17:00 +20°C° 0 mm 3 mps 750 mmHg 59%
    18:00 +18°C° 0 mm 3 mps 750 mmHg 66%
    19:00 +16°C° 0 mm 2 mps 751 mmHg 73%
    20:00 +15°C° 0 mm 2 mps 751 mmHg 74%
    21:00 +15°C° 0 mm 2 mps 751 mmHg 76%
    22:00 +15°C° 0 mm 2 mps 752 mmHg 77%
    23:00 +14°C° 0 mm 2 mps 752 mmHg 76%

    22 June, Saturday

    Time Temperature Precipitation Wind Pressure Humidity
    00:00 +14°C° 0 mm 2 mps 751 mmHg 75%
    01:00 +14°C° 0 mm 2 mps 751 mmHg 74%
    02:00 +14°C° 0 mm 2 mps 751 mmHg 72%
    03:00 +15°C° 0 mm 2 mps 751 mmHg 71%
    04:00 +14°C° 0 mm 3 mps 751 mmHg 69%
    05:00 +14°C° 0 mm 3 mps 751 mmHg 71%
    06:00 +14°C° 0 mm 3 mps 751 mmHg 72%
    07:00 +14°C° 0 mm 3 mps 751 mmHg 73%
    08:00 +17°C° 0 mm 3 mps 751 mmHg 68%
    09:00 +19°C° 0 mm 3 mps 751 mmHg 63%
    10:00 +21°C° 0 mm 3 mps 751 mmHg 58%
    11:00 +21°C° 0 mm 3 mps 751 mmHg 57%
    12:00 +22°C° 0 mm 4 mps 750 mmHg 55%
    13:00 +22°C° 0 mm 4 mps 750 mmHg 53%
    14:00 +22°C° 0 mm 4 mps 749 mmHg 56%
    15:00 +22°C° 0 mm 4 mps 749 mmHg 58%
    16:00 +21°C° 0 mm 3 mps 749 mmHg 61%
    17:00 +20°C° 0 mm 3 mps 750 mmHg 68%
    18:00 +18°C° 0 mm 3 mps 750 mmHg 76%
    19:00 +16°C° 0 mm 3 mps 751 mmHg 84%
    20:00 +16°C° 0 mm 2 mps 751 mmHg 85%
    21:00 +16°C° 0 mm 2 mps 751 mmHg 86%
    22:00 +15°C° 0 mm 2 mps 751 mmHg 88%
    23:00 +15°C° 0 mm 2 mps 751 mmHg 88%

    23 June, Sunday

    Time Temperature Precipitation Wind Pressure Humidity
    00:00 +15°C° 0 mm 2 mps 751 mmHg 88%
    01:00 +15°C° 0 mm 2 mps 750 mmHg 89%
    02:00 +15°C° 0 mm 2 mps 750 mmHg 90%
    03:00 +14°C° 0 mm 3 mps 750 mmHg 90%
    04:00 +14°C° 0 mm 3 mps 750 mmHg 91%
    05:00 +13°C° 0 mm 3 mps 750 mmHg 90%
    06:00 +13°C° 0 mm 3 mps 751 mmHg 90%
    07:00 +14°C° 0 mm 2 mps 751 mmHg 89%
    08:00 +17°C° 0 mm 2 mps 751 mmHg 80%
    09:00 +19°C° 0 mm 2 mps 751 mmHg 70%
    10:00 +21°C° 0 mm 2 mps 751 mmHg 61%
    11:00 +23°C° 0 mm 2 mps 751 mmHg 59%
    12:00 +24°C° 0 mm 3 mps 750 mmHg 57%
    13:00 +25°C° 0 mm 3 mps 750 mmHg 55%
    14:00 +24°C° 0 mm 3 mps 749 mmHg 57%
    15:00 +24°C° 0 mm 3 mps 749 mmHg 58%
    16:00 +24°C° 0 mm 3 mps 749 mmHg 60%
    17:00 +21°C° 0 mm 3 mps 750 mmHg 68%
    18:00 +19°C° 0 mm 2 mps 750 mmHg 76%
    19:00 +17°C° 0 mm 2 mps 751 mmHg 84%
    20:00 +17°C° 0 mm 2 mps 751 mmHg 85%
    21:00 +17°C° 0 mm 2 mps 751 mmHg 87%
    22:00 +16°C° 0 mm 2 mps 751 mmHg 88%
    23:00 +16°C° 0.1 mm 2 mps 751 mmHg 88%
    Show more